DW5963 Weather Reports


Display with metric or nautical units.
time (UTC)temp
F
wind
direction
speed
MPH
gust
MPH
rain 1hr
in
rain 24hr
in
rain mn
in
humidity
%
barometer
mb
20260508231550 70 360 15.0 0.0 0.00 0.00 0.00 31 1005.6
20260508231149 70 360 15.0 0.0 0.00 0.00 0.00 31 1005.7
20260508230548 70 360 14.0 0.0 0.00 0.00 0.00 31 1005.7
20260508230048 70 360 13.0 0.0 0.00 0.00 0.00 31 1005.7
20260508225547 70 360 13.0 0.0 0.00 0.00 0.00 31 1005.7
20260508225048 71 360 12.0 0.0 0.00 0.00 0.00 30 1005.8
20260508224546 71 360 11.0 0.0 0.00 0.00 0.00 31 1005.8
20260508224045 71 360 11.0 0.0 0.00 0.00 0.00 31 1005.9
20260508223545 70 360 11.0 0.0 0.00 0.00 0.00 32 1006.1
20260508223050 69 360 11.0 0.0 0.00 0.00 0.00 32 1006.3
20260508222544 68 360 12.0 0.0 0.00 0.00 0.00 32 1006.4
20260508222044 68 360 13.0 0.0 0.00 0.00 0.00 32 1006.6
20260508221544 69 360 13.0 0.0 0.00 0.00 0.00 32 1006.7
20260508221144 68 360 17.0 0.0 0.00 0.00 0.00 32 1006.8
20260508220544 68 360 19.0 0.0 0.00 0.00 0.00 32 1006.8
20260508220046 68 360 19.0 0.0 0.00 0.00 0.00 31 1006.9
20260508215544 69 360 19.0 0.0 0.00 0.00 0.00 29 1006.7
20260508215044 69 360 21.0 0.0 0.00 0.00 0.00 29 1006.7
20260508214553 69 360 18.0 0.0 0.00 0.00 0.00 28 1006.6
20260508214044 71 360 17.0 0.0 0.00 0.00 0.00 25 1006.4
20260508213544 71 360 18.0 0.0 0.00 0.00 0.00 24 1006.2
20260508213043 73 360 17.0 0.0 0.00 0.00 0.00 21 1006.1
20260508212543 75 360 17.0 0.0 0.00 0.00 0.00 22 1006.1
20260508212042 75 360 16.0 0.0 0.00 0.00 0.00 22 1006.0
20260508211543 74 360 15.0 0.0 0.00 0.00 0.00 23 1006.1
20260508211142 74 360 17.0 0.0 0.00 0.00 0.00 22 1006.2
20260508210541 74 360 17.0 0.0 0.00 0.00 0.00 22 1006.3
20260508210041 73 360 16.0 0.0 0.00 0.00 0.00 22 1006.2
20260508205539 74 360 16.0 0.0 0.00 0.00 0.00 22 1006.4
20260508205039 75 360 15.0 0.0 0.00 0.00 0.00 23 1006.4
20260508204543 75 360 16.0 0.0 0.00 0.00 0.00 23 1006.6
20260508204040 74 360 16.0 0.0 0.00 0.00 0.00 23 1006.6
20260508203537 73 360 15.0 0.0 0.00 0.00 0.00 23 1006.6
20260508203037 74 360 14.0 0.0 0.00 0.00 0.00 22 1006.8
20260508202537 73 360 14.0 0.0 0.00 0.00 0.00 25 1006.9
20260508202038 73 360 16.0 0.0 0.00 0.00 0.00 23 1007.1
20260508201538 74 360 16.0 0.0 0.00 0.00 0.00 24 1007.0
20260508201134 72 360 14.0 0.0 0.00 0.00 0.00 24 1007.0
20260508200538 73 360 13.0 0.0 0.00 0.00 0.00 24 1007.2
20260508200034 74 360 14.0 0.0 0.00 0.00 0.00 24 1007.3
20260508195532 73 360 13.0 0.0 0.00 0.00 0.00 24 1007.6
20260508195032 73 360 13.0 0.0 0.00 0.00 0.00 24 1007.6
20260508194532 73 360 15.0 0.0 0.00 0.00 0.00 23 1007.7
20260508194033 72 360 15.0 0.0 0.00 0.00 0.00 24 1007.8
20260508193531 73 360 13.0 0.0 0.00 0.00 0.00 24 1007.8
20260508193033 73 360 12.0 0.0 0.00 0.00 0.00 24 1007.8
20260508192530 73 360 11.0 0.0 0.00 0.00 0.00 24 1008.0
20260508192029 72 360 11.0 0.0 0.00 0.00 0.00 25 1008.0
20260508191532 71 360 12.0 0.0 0.00 0.00 0.00 26 1008.1
20260508191129 72 360 13.0 0.0 0.00 0.00 0.00 25 1008.2
20260508190529 72 360 13.0 0.0 0.00 0.00 0.00 25 1008.3
20260508190030 72 360 12.0 0.0 0.00 0.00 0.00 25 1008.4
20260508185529 71 360 11.0 0.0 0.00 0.00 0.00 25 1008.4
20260508185028 71 360 11.0 0.0 0.00 0.00 0.00 26 1008.4
20260508184531 72 360 12.0 0.0 0.00 0.00 0.00 25 1008.4
20260508184027 71 360 13.0 0.0 0.00 0.00 0.00 25 1008.5
20260508183531 69 360 13.0 0.0 0.00 0.00 0.00 26 1008.7
20260508183027 68 360 11.0 0.0 0.00 0.00 0.00 25 1008.7
20260508182527 70 360 11.0 0.0 0.00 0.00 0.00 25 1008.9
20260508182029 71 360 10.0 0.0 0.00 0.00 0.00 25 1009.1
20260508181526 70 360 9.0 0.0 0.00 0.00 0.00 25 1009.1
20260508181127 69 360 9.0 0.0 0.00 0.00 0.00 26 1009.3
20260508180525 69 360 10.0 0.0 0.00 0.00 0.00 25 1009.3
20260508180026 69 360 11.0 0.0 0.00 0.00 0.00 26 1009.4
20260508175524 69 360 9.0 0.0 0.00 0.00 0.00 26 1009.4
20260508175024 69 360 8.0 0.0 0.00 0.00 0.00 26 1009.4
20260508174524 69 360 8.0 0.0 0.00 0.00 0.00 26 1009.6
20260508174023 69 360 9.0 0.0 0.00 0.00 0.00 26 1009.7
20260508173524 69 360 9.0 0.0 0.00 0.00 0.00 26 1009.8
20260508173022 68 360 9.0 0.0 0.00 0.00 0.00 29 1009.9
20260508172522 68 360 9.0 0.0 0.00 0.00 0.00 28 1010.1
20260508172027 68 360 10.0 0.0 0.00 0.00 0.00 29 1010.1
20260508171523 68 360 10.0 0.0 0.00 0.00 0.00 28 1010.2
20260508171121 67 360 9.0 0.0 0.00 0.00 0.00 29 1010.4
20260508170521 67 360 9.0 0.0 0.00 0.00 0.00 28 1010.3
20260508170019 66 360 10.0 0.0 0.00 0.00 0.00 30 1010.5
20260508165518 66 360 10.0 0.0 0.00 0.00 0.00 30 1010.5
20260508165018 66 360 8.0 0.0 0.00 0.00 0.00 30 1010.5
20260508164517 66 360 8.0 0.0 0.00 0.00 0.00 31 1010.6
20260508164017 65 360 8.0 0.0 0.00 0.00 0.00 31 1010.7
20260508163516 65 360 7.0 0.0 0.00 0.00 0.00 31 1010.7
20260508163015 64 360 7.0 0.0 0.00 0.00 0.00 32 1010.7
20260508162514 64 360 6.0 0.0 0.00 0.00 0.00 32 1010.8
20260508162015 63 360 5.0 0.0 0.00 0.00 0.00 31 1010.9
20260508161514 63 360 6.0 0.0 0.00 0.00 0.00 33 1011.0
20260508161116 63 360 6.0 0.0 0.00 0.00 0.00 31 1010.9
20260508160511 63 360 6.0 0.0 0.00 0.00 0.00 32 1011.0
20260508160025 63 360 6.0 0.0 0.00 0.00 0.00 33 1011.0
20260508155510 63 360 6.0 0.0 0.00 0.00 0.00 32 1011.1
20260508155010 62 360 7.0 0.0 0.00 0.00 0.00 33 1011.1
20260508154510 62 360 7.0 0.0 0.00 0.00 0.00 34 1011.1
20260508154008 62 360 6.0 0.0 0.00 0.00 0.00 34 1011.2
20260508153508 61 360 7.0 0.0 0.00 0.00 0.00 34 1011.2
20260508153006 61 360 8.0 0.0 0.00 0.00 0.00 35 1011.3
20260508152509 61 360 9.0 0.0 0.00 0.00 0.00 35 1011.4
20260508152007 61 360 9.0 0.0 0.00 0.00 0.00 36 1011.4
20260508151508 60 360 8.0 0.0 0.00 0.00 0.00 36 1011.3
20260508151104 59 360 8.0 0.0 0.00 0.00 0.00 37 1011.3
20260508150505 59 360 7.0 0.0 0.00 0.00 0.00 37 1011.3
20260508150006 59 360 7.0 0.0 0.00 0.00 0.00 37 1011.4
20260508145503 58 360 9.0 0.0 0.00 0.00 0.00 38 1011.3
20260508145002 58 360 8.0 0.0 0.00 0.00 0.00 39 1011.3
20260508144502 58 360 8.0 0.0 0.00 0.00 0.00 39 1011.4
20260508144002 58 360 8.0 0.0 0.00 0.00 0.00 39 1011.4
20260508143600 58 360 8.0 0.0 0.00 0.00 0.00 38 1011.6
20260508143108 57 360 7.0 0.0 0.00 0.00 0.00 38 1011.5
20260508142558 57 360 7.0 0.0 0.00 0.00 0.00 39 1011.5
20260508142059 56 360 7.0 0.0 0.00 0.00 0.00 39 1011.5
20260508141605 56 360 8.0 0.0 0.00 0.00 0.00 40 1011.5
20260508141054 54 360 7.0 0.0 0.00 0.00 0.00 41 1011.4
20260508140555 54 360 7.0 0.0 0.00 0.00 0.00 41 1011.4
20260508140054 54 360 6.0 0.0 0.00 0.00 0.00 43 1011.4
20260508135553 53 360 6.0 0.0 0.00 0.00 0.00 46 1011.4
20260508135052 54 360 6.0 0.0 0.00 0.00 0.00 46 1011.4
20260508134551 53 360 5.0 0.0 0.00 0.00 0.00 46 1011.4
20260508134049 53 360 5.0 0.0 0.00 0.00 0.00 47 1011.4
20260508133548 52 360 4.0 0.0 0.00 0.00 0.00 50 1011.3
20260508133055 51 360 4.0 0.0 0.00 0.00 0.00 52 1011.4
20260508132545 50 360 4.0 0.0 0.00 0.00 0.00 53 1011.4
20260508132044 50 360 4.0 0.0 0.00 0.00 0.00 55 1011.4
20260508131544 49 360 3.0 0.0 0.00 0.00 0.00 58 1011.5
20260508131046 46 360 2.0 0.0 0.00 0.00 0.00 65 1011.5
20260508130543 46 360 2.0 0.0 0.00 0.00 0.00 65 1011.4
20260508130047 45 360 3.0 0.0 0.00 0.00 0.00 67 1011.4
20260508125541 44 360 3.0 0.0 0.00 0.00 0.00 69 1011.4
20260508125040 44 360 4.0 0.0 0.00 0.00 0.00 71 1011.4
20260508124540 43 360 4.0 0.0 0.00 0.00 0.00 72 1011.3
20260508124040 41 360 4.0 0.0 0.00 0.00 0.00 74 1011.3
20260508123539 40 360 4.0 0.0 0.00 0.00 0.00 75 1011.3
20260508123039 39 360 4.0 0.0 0.00 0.00 0.00 77 1011.3
20260508122538 38 360 3.0 0.0 0.00 0.00 0.00 78 1011.2
20260508122039 38 360 3.0 0.0 0.00 0.00 0.00 78 1011.2
20260508121555 37 360 3.0 0.0 0.00 0.00 0.00 79 1011.1
20260508121036 36 360 3.0 0.0 0.00 0.00 0.00 80 1011.0
20260508120537 35 360 3.0 0.0 0.00 0.00 0.00 80 1011.0
20260508120038 35 360 3.0 0.0 0.00 0.00 0.00 80 1010.9
20260508115539 34 360 3.0 0.0 0.00 0.00 0.00 80 1010.9
20260508115035 34 360 3.0 0.0 0.00 0.00 0.00 80 1010.7
20260508114537 34 360 3.0 0.0 0.00 0.00 0.00 81 1010.6
20260508114035 34 360 4.0 0.0 0.00 0.00 0.00 81 1010.7
20260508113539 34 360 4.0 0.0 0.00 0.00 0.00 82 1010.5
20260508113033 32 360 3.0 0.0 0.00 0.00 0.00 81 1010.5
20260508112533 33 360 3.0 0.0 0.00 0.00 0.00 81 1010.3
20260508112031 33 360 3.0 0.0 0.00 0.00 0.00 81 1010.3
20260508111531 33 360 3.0 0.0 0.00 0.00 0.00 80 1010.1
20260508111030 34 360 3.0 0.0 0.00 0.00 0.00 81 1010.1
20260508110529 34 360 3.0 0.0 0.00 0.00 0.00 81 1010.1
20260508110036 34 360 2.0 0.0 0.00 0.00 0.00 81 1010.1
20260508105529 34 360 2.0 0.0 0.00 0.00 0.00 80 1010.0
20260508105029 34 360 2.0 0.0 0.00 0.00 0.00 79 1010.0
20260508104527 35 360 1.0 0.0 0.00 0.00 0.00 79 1009.9
20260508104027 35 360 0.0 0.0 0.00 0.00 0.00 79 1009.8
20260508103526 35 360 1.0 0.0 0.00 0.00 0.00 79 1009.8
20260508103026 35 360 2.0 0.0 0.00 0.00 0.00 79 1009.8
20260508102525 35 360 3.0 0.0 0.00 0.00 0.00 79 1009.8
20260508102025 35 360 4.0 0.0 0.00 0.00 0.00 78 1009.8
20260508101524 35 360 4.0 0.0 0.00 0.00 0.00 78 1009.7
20260508101025 35 360 3.0 0.0 0.00 0.00 0.00 75 1009.5
20260508100523 35 360 3.0 0.0 0.00 0.00 0.00 75 1009.5
20260508100022 35 360 3.0 0.0 0.00 0.00 0.00 73 1009.5
20260508095525 36 360 4.0 0.0 0.00 0.00 0.00 73 1009.5
20260508095022 36 360 4.0 0.0 0.00 0.00 0.00 72 1009.4
20260508094525 36 360 4.0 0.0 0.00 0.00 0.00 70 1009.3
20260508094019 37 360 3.0 0.0 0.00 0.00 0.00 69 1009.2
20260508093520 38 360 2.0 0.0 0.00 0.00 0.00 70 1009.2
20260508093023 38 360 1.0 0.0 0.00 0.00 0.00 69 1009.1
20260508092519 38 360 1.0 0.0 0.00 0.00 0.00 69 1009.1
20260508092019 38 360 1.0 0.0 0.00 0.00 0.00 68 1009.2
20260508091518 38 360 2.0 0.0 0.00 0.00 0.00 66 1009.1
20260508091018 39 360 3.0 0.0 0.00 0.00 0.00 65 1008.9
20260508090523 39 360 3.0 0.0 0.00 0.00 0.00 65 1008.9
20260508090018 40 360 3.0 0.0 0.00 0.00 0.00 63 1008.9
20260508085524 41 360 4.0 0.0 0.00 0.00 0.00 61 1008.9
20260508085017 42 360 6.0 0.0 0.00 0.00 0.00 61 1008.9
20260508084518 43 360 8.0 0.0 0.00 0.00 0.00 61 1008.9
20260508084017 44 360 8.0 0.0 0.00 0.00 0.00 63 1008.8
20260508083516 47 360 8.0 0.0 0.00 0.00 0.00 67 1008.7
20260508083046 48 360 9.0 0.0 0.00 0.00 0.00 68 1008.5
20260508082515 48 360 8.0 0.0 0.00 0.00 0.00 69 1008.4
20260508082020 47 360 6.0 0.0 0.00 0.00 0.00 70 1008.2
20260508081514 47 360 4.0 0.0 0.00 0.00 0.00 70 1008.0
20260508081114 46 360 3.0 0.0 0.00 0.00 0.00 70 1007.9
20260508080511 45 360 3.0 0.0 0.00 0.00 0.00 71 1008.0
20260508080010 43 360 1.0 0.0 0.00 0.00 0.00 66 1008.1
20260508075509 42 360 0.0 0.0 0.00 0.00 0.00 65 1008.1
20260508075007 41 360 0.0 0.0 0.00 0.00 0.00 65 1008.0
20260508074506 40 360 0.0 0.0 0.00 0.00 0.00 65 1008.1
20260508074007 39 360 1.0 0.0 0.00 0.00 0.00 66 1008.2
20260508073502 38 360 0.0 0.0 0.00 0.00 0.00 65 1008.2
20260508073003 36 360 0.0 0.0 0.00 0.00 0.00 63 1008.2
20260508072602 35 360 0.0 0.0 0.00 0.00 0.00 62 1008.2
20260508072100 35 360 1.0 0.0 0.00 0.00 0.00 61 1008.3
20260508071600 34 360 1.0 0.0 0.00 0.00 0.00 59 1008.3
20260508071059 34 360 0.0 0.0 0.00 0.00 0.00 59 1008.4
20260508065559 34 360 1.0 0.0 0.00 0.00 0.00 58 1008.6
20260508065056 35 360 0.0 0.0 0.00 0.00 0.00 58 1008.6
20260508064609 35 360 0.0 0.0 0.00 0.00 0.00 58 1008.7
20260508064055 35 360 0.0 0.0 0.00 0.00 0.00 59 1008.6
20260508063554 34 360 0.0 0.0 0.00 0.00 0.00 60 1008.8
20260508063052 33 360 0.0 0.0 0.00 0.00 0.00 59 1008.7
20260508062553 33 360 0.0 0.0 0.00 0.00 0.00 58 1008.8
20260508062052 34 360 0.0 0.0 0.00 0.00 0.00 56 1008.8
20260508061551 35 360 0.0 0.0 0.00 0.00 0.00 56 1008.8
20260508061051 35 360 0.0 0.0 0.00 0.00 0.00 56 1008.9
20260508060050 35 360 0.0 0.0 0.00 0.00 0.00 56 1009.1
20260508055552 35 360 0.0 0.0 0.00 0.00 0.00 56 1009.0
20260508055051 34 360 0.0 0.0 0.00 0.00 0.00 57 1009.1
20260508054555 34 360 0.0 0.0 0.00 0.00 0.00 57 1009.1
20260508054055 34 360 0.0 0.0 0.00 0.00 0.00 57 1009.1
20260508053550 34 360 0.0 0.0 0.00 0.00 0.00 56 1009.1
20260508053050 34 360 0.0 0.0 0.00 0.00 0.00 56 1009.2
20260508052550 34 360 0.0 0.0 0.00 0.00 0.00 55 1009.2
20260508052050 35 360 0.0 0.0 0.00 0.00 0.00 53 1009.2
20260508051550 36 360 0.0 0.0 0.00 0.00 0.00 52 1009.2
20260508051050 36 360 0.0 0.0 0.00 0.00 0.00 52 1009.2
20260508050052 36 360 0.0 0.0 0.00 0.00 0.00 52 1009.1
20260508045554 37 360 0.0 0.0 0.00 0.00 0.00 51 1009.2
20260508045054 37 360 0.0 0.0 0.00 0.00 0.00 49 1009.2
20260508044550 38 360 0.0 0.0 0.00 0.00 0.00 49 1009.2
20260508044052 39 360 0.0 0.0 0.00 0.00 0.00 50 1009.2
20260508043549 39 360 0.0 0.0 0.00 0.00 0.00 50 1009.2
20260508043050 39 360 0.0 0.0 0.00 0.00 0.00 48 1009.2
20260508042550 40 360 0.0 0.0 0.00 0.00 0.00 47 1009.2
20260508042051 42 360 0.0 0.0 0.00 0.00 0.00 45 1009.3
20260508041552 42 360 0.0 0.0 0.00 0.00 0.00 47 1009.3
20260508041050 42 360 0.0 0.0 0.00 0.00 0.00 47 1009.2
20260508040049 42 360 1.0 0.0 0.00 0.00 0.00 45 1009.4
20260508035550 43 360 1.0 0.0 0.00 0.00 0.00 44 1009.4
20260508035049 44 360 0.0 0.0 0.00 0.00 0.00 43 1009.4
20260508034554 45 360 0.0 0.0 0.00 0.00 0.00 44 1009.5
20260508034049 45 360 0.0 0.0 0.00 0.00 0.00 44 1009.6
20260508033549 44 360 1.0 0.0 0.00 0.00 0.00 44 1009.6
20260508033050 44 360 2.0 0.0 0.00 0.00 0.00 44 1009.6
20260508032548 43 360 2.0 0.0 0.00 0.00 0.00 45 1009.7
20260508032048 43 360 1.0 0.0 0.00 0.00 0.00 45 1009.7
20260508031548 43 360 1.0 0.0 0.00 0.00 0.00 45 1009.7
20260508031049 43 360 2.0 0.0 0.00 0.00 0.00 45 1009.7
20260508025548 44 360 1.0 0.0 0.00 0.00 0.00 41 1009.6
20260508025048 45 360 0.0 0.0 0.00 0.00 0.00 40 1009.5
20260508024555 47 360 0.0 0.0 0.00 0.00 0.00 40 1009.4
20260508024048 48 360 0.0 0.0 0.00 0.00 0.00 35 1009.3
20260508023547 49 360 0.0 0.0 0.00 0.00 0.00 35 1009.3
20260508023047 50 360 0.0 0.0 0.00 0.00 0.00 33 1009.2
20260508022547 51 360 0.0 0.0 0.00 0.00 0.00 31 1009.3
20260508022048 53 360 0.0 0.0 0.00 0.00 0.00 31 1009.2
20260508021547 54 360 0.0 0.0 0.00 0.00 0.00 30 1009.2
20260508021046 55 360 0.0 0.0 0.00 0.00 0.00 29 1009.1
20260508020049 57 360 0.0 0.0 0.00 0.00 0.00 27 1008.9
20260508015548 59 360 0.0 0.0 0.00 0.00 0.00 27 1009.0
20260508015048 59 360 0.0 0.0 0.00 0.00 0.00 27 1008.9
20260508014547 60 360 0.0 0.0 0.00 0.00 0.00 27 1009.1
20260508014048 61 360 0.0 0.0 0.00 0.00 0.00 27 1009.1
20260508013546 61 360 1.0 0.0 0.00 0.00 0.00 25 1009.1
20260508013046 62 360 1.0 0.0 0.00 0.00 0.00 25 1009.1
20260508012547 62 360 2.0 0.0 0.00 0.00 0.00 25 1009.1
20260508012049 62 360 3.0 0.0 0.00 0.00 0.00 25 1009.1
20260508011559 63 360 4.0 0.0 0.00 0.00 0.00 24 1009.1
20260508011045 64 360 3.0 0.0 0.00 0.00 0.00 24 1009.1
20260508010056 63 360 4.0 0.0 0.00 0.00 0.00 24 1009.2
20260508005544 63 360 5.0 0.0 0.00 0.00 0.00 24 1009.2
20260508005044 64 360 6.0 0.0 0.00 0.00 0.00 23 1009.3
20260508004555 64 360 7.0 0.0 0.00 0.00 0.00 23 1009.3
20260508004044 65 360 7.0 0.0 0.00 0.00 0.00 22 1009.3
20260508003544 65 360 7.0 0.0 0.00 0.00 0.00 23 1009.3
20260508003045 65 360 6.0 0.0 0.00 0.00 0.00 23 1009.3
20260508002544 65 360 5.0 0.0 0.00 0.00 0.00 22 1009.4
20260508002043 65 360 7.0 0.0 0.00 0.00 0.00 22 1009.4
20260508001545 65 360 7.0 0.0 0.00 0.00 0.00 22 1009.3
20260508001042 65 360 7.0 0.0 0.00 0.00 0.00 23 1009.3
20260508000042 65 360 8.0 0.0 0.00 0.00 0.00 22 1009.6
20260507235542 65 360 8.0 0.0 0.00 0.00 0.00 22 1009.6
20260507235042 65 360 9.0 0.0 0.00 0.00 0.00 22 1009.6
20260507234542 65 360 10.0 0.0 0.00 0.00 0.00 22 1009.6
20260507234041 65 360 9.0 0.0 0.00 0.00 0.00 22 1009.5
20260507233542 64 360 9.0 0.0 0.00 0.00 0.00 23 1009.5
20260507233042 65 360 7.0 0.0 0.00 0.00 0.00 22 1009.4
20260507232540 65 360 7.0 0.0 0.00 0.00 0.00 22 1009.4
20260507232040 65 360 7.0 0.0 0.00 0.00 0.00 21 1009.6